Regional Weather Roundup
Issued by NWS

Current Version | Previous Version | Text Only | Print | Product List | Glossary On
Versions: 1 2 3 4 5 6 7 8 9 10 11 12 13 14 15 16 17 18 19 20 21 22 23 24 25 26 27 28 29 30 31 32 33 34 35 36 37 38 39 40 41 42 43 44 45 46 47 48 49 50
000
ASUS43 KIND 220809
RWRIN

WEATHER ROUNDUP FOR INDIANA
NATIONAL WEATHER SERVICE INDIANAPOLIS IN
300 AM EST MON DEC 22 2014

NOTE: "FAIR" INDICATES FEW OR NO CLOUDS BELOW 12,000 FEET WITH NO
SIGNIFICANT WEATHER AND/OR OBSTRUCTIONS TO VISIBILITY.

* - STATION DOES NOT REPORT WEATHER SUCH AS PRECIPITATION OR FOG.

+ - STATION NOT QUALITY CONTROLLED BY THE NATIONAL WEATHER SERVICE.
    USE DATA WITH CAUTION...ESPECIALLY DEWPOINT AND RELATIVE
    HUMIDITY OBSERVATIONS.

INZ001>003-010>013-019-020-220900-
NORTHWEST INDIANA

CITY           SKY/WX    TMP DP  RH WIND       PRES   REMARKS
GARY /AIRPORT/ MOCLDY    33  25  71 SE7       30.02R WCI  27
KNOX *+        PTCLDY    29  23  78 SE10      30.02F WCI  20
LA PORTE +     PTCLDY    31  28  90 SE7       30.02F FOG     WCI  24
MICHIGAN CITY+ MOCLDY    32  23  69 SE6       30.03S WCI  26
MONTICELLO +   PTCLDY    29  27  90 SE3       30.02S
RENSSELAER +   MOCLDY    32  30  93 SE7       30.02F FOG     WCI  26
VALPARAISO     MOCLDY    29  25  85 SE6       30.03S WCI  23

$$

LMZ046-743>745-220900-
SOUTHERN LAKE MICHIGAN

STATION/POSITION TIME  TEMP WIND        PRES
                       AIR  DIR/SP/G
                 (UTC) (F)  (DEG/KT/KT) (MB)

$$

INZ004-005-014>016-021>024-220900-
NORTH CENTRAL INDIANA

CITY           SKY/WX    TMP DP  RH WIND       PRES   REMARKS
GOSHEN         MOCLDY    28  24  85 SE8       30.05F WCI  20
LOGANSPORT +   CLEAR     28  25  86 E9        30.03F FOG     WCI  20
PERU/GRISSOM   CLEAR     27  27 100 E8        30.03F WCI  19
ROCHESTER +    PTCLDY    32  28  86 SE7       30.05S FOG     WCI  26
SOUTH BEND     MOCLDY    30  25  81 SE9       30.05F WCI  22
WARSAW +       MOCLDY    28  25  86 SE7       30.05F FOG     WCI  21

$$

INZ006>009-017-018-025>027-220900-
NORTHEAST INDIANA

CITY           SKY/WX    TMP DP  RH WIND       PRES   REMARKS
ANGOLA *+      CLEAR     27  23  86 SE6       30.07S WCI  20
AUBURN +       PTCLDY    28  23  80 E6        30.08F FOG     WCI  22
FORT WAYNE     PTCLDY    25  22  88 E5        30.08F FOG     WCI  19
HUNTINGTON +   PTCLDY    26  24  94 SE3       30.07S

$$

INZ028-029-035-036-043>045-051>053-220900-
WEST CENTRAL INDIANA

CITY           SKY/WX    TMP DP  RH WIND       PRES   REMARKS
GREENCASTLE +  CLEAR     28  23  80 E5        30.01S WCI  23
LAFAYETTE      PTCLDY    28  25  88 E7        30.02S WCI  21
TERRE HAUTE    CLOUDY    31  27  85 E5        30.00F WCI  26

$$

INZ030>032-037>040-046>048-054>057-064-065-220900-
CENTRAL INDIANA

CITY           SKY/WX    TMP DP  RH WIND       PRES   REMARKS
CP ATTERBURY + CLEAR     28  27  93 MISG      30.03F
FRANKFORT +    CLEAR     28  28  99 E8        30.03S FOG     WCI  20
INDIANAPOLIS   MOCLDY    27  24  89 E8        30.01F FOG     WCI  19
-EAGLE CREEK   CLEAR     27  24  89 E3        30.01F
KOKOMO *+      CLEAR     27  25  93 E8        30.04F WCI  18
MARION +       PTCLDY    27  24  89 E9        30.05F WCI  18
MT COMFORT *+  CLEAR     28  25  86 SE7       30.03F WCI  21
SHELBYVILLE    CLEAR     30  25  81 E7        30.02F WCI  23
ZIONSVILLE +   CLEAR     27  24  86 E5        30.02F FOG     WCI  22

$$

INZ033-034-041-042-049-050-058-059-220900-
EAST CENTRAL INDIANA

CITY           SKY/WX    TMP DP  RH WIND       PRES   REMARKS
MUNCIE         PTCLDY    28  24  85 SE5       30.05F WCI  23

$$

INZ060-061-067>069-081>083-085>088-220900-
SOUTHWEST INDIANA

CITY           SKY/WX    TMP DP  RH WIND       PRES   REMARKS
EVANSVILLE     CLOUDY    35  29  78 NE5       29.99S WCI  31
HUNTINGBURG *+ CLOUDY    34  28  80 SE6       29.99F WCI  29
WASHINGTON +   CLOUDY    32  28  86 SE7       29.99S WCI  26

$$

INZ062-063-066-070>080-084-089>092-220900-
SOUTH CENTRAL AND SOUTHEAST INDIANA

CITY           SKY/WX    TMP DP  RH WIND       PRES   REMARKS
BLOOMINGTON    CLEAR     29  26  89 SE7       30.00F WCI  22

$$




USA.gov is the U.S. government's official web portal to all federal, state and local government web resources and services.